| time (UTC) | temp F | wind direction | speed knots | gust knots | rain 1hr in | rain 24hr in | rain mn in | humidity % | barometer mb |
| 20260508084604 | 62 | 227 | 0.9 | 2.6 | 0.00 | 0.00 | 0.00 | 65 | 1011.9 |
| 20260508084104 | 63 | 204 | 0.9 | 2.6 | 0.00 | 0.00 | 0.00 | 63 | 1011.5 |
| 20260508083603 | 63 | 198 | 1.7 | 1.7 | 0.00 | 0.00 | 0.00 | 63 | 1011.5 |
| 20260508082605 | 63 | 188 | 0.0 | 0.9 | 0.00 | 0.00 | 0.00 | 62 | 1011.2 |
| 20260508081604 | 62 | 215 | 0.0 | 0.9 | 0.00 | 0.00 | 0.00 | 64 | 1011.5 |
| 20260508081103 | 62 | 321 | 0.0 | 0.9 | 0.00 | 0.00 | 0.00 | 65 | 1011.5 |
| 20260508080603 | 62 | 238 | 0.0 | 0.9 | 0.00 | 0.00 | 0.00 | 64 | 1011.5 |
| 20260508080104 | 61 | 198 | 0.0 | 0.9 | 0.00 | 0.00 | 0.00 | 65 | 1011.5 |
| 20260508075604 | 62 | 217 | 0.0 | 0.0 | 0.00 | 0.00 | 0.00 | 65 | 1011.5 |
| 20260508075104 | 61 | 50 | 0.0 | 0.0 | 0.00 | 0.00 | 0.00 | 65 | 1011.5 |
| 20260508074604 | 61 | 279 | 0.0 | 0.0 | 0.00 | 0.00 | 0.00 | 65 | 1011.2 |
| 20260508074104 | 61 | 210 | 0.0 | 0.0 | 0.00 | 0.00 | 0.00 | 66 | 1011.2 |
| 20260508073604 | 61 | 340 | 0.0 | 0.0 | 0.00 | 0.00 | 0.00 | 66 | 1011.5 |
| 20260508073104 | 60 | 303 | 0.0 | 0.9 | 0.00 | 0.00 | 0.00 | 66 | 1011.2 |
| 20260508072604 | 60 | 271 | 0.0 | 0.9 | 0.00 | 0.00 | 0.00 | 66 | 1011.5 |
| 20260508071604 | 59 | 346 | 0.0 | 0.0 | 0.00 | 0.00 | 0.00 | 68 | 1011.2 |
| 20260508071104 | 58 | 336 | 0.0 | 0.0 | 0.00 | 0.00 | 0.00 | 71 | 1011.2 |
| 20260508070604 | 57 | 353 | 0.0 | 0.0 | 0.00 | 0.00 | 0.00 | 73 | 1011.2 |
| 20260508070104 | 56 | 343 | 0.0 | 0.0 | 0.00 | 0.00 | 0.00 | 74 | 1010.8 |
| 20260508065603 | 56 | 349 | 0.0 | 0.0 | 0.00 | 0.00 | 0.00 | 75 | 1011.2 |
| 20260508065104 | 55 | 349 | 0.0 | 0.0 | 0.00 | 0.00 | 0.00 | 75 | 1010.5 |
| 20260508064604 | 55 | 351 | 0.0 | 0.0 | 0.00 | 0.00 | 0.00 | 75 | 1010.5 |
| 20260508064104 | 54 | 350 | 0.0 | 0.0 | 0.00 | 0.00 | 0.00 | 75 | 1010.5 |
| 20260508063604 | 54 | 354 | 0.0 | 0.0 | 0.00 | 0.00 | 0.00 | 76 | 1010.5 |
| 20260508063104 | 53 | 357 | 0.0 | 0.0 | 0.00 | 0.00 | 0.00 | 76 | 1010.8 |
| 20260508062604 | 53 | 351 | 0.0 | 0.0 | 0.00 | 0.00 | 0.00 | 76 | 1010.6 |
| 20260508062104 | 53 | 352 | 0.0 | 0.0 | 0.00 | 0.00 | 0.00 | 76 | 1010.5 |
| 20260508061604 | 53 | 354 | 0.0 | 0.0 | 0.00 | 0.00 | 0.00 | 75 | 1010.5 |
| 20260508061104 | 53 | 356 | 0.0 | 0.0 | 0.00 | 0.00 | 0.00 | 75 | 1010.3 |
| 20260508060603 | 53 | 356 | 0.0 | 0.0 | 0.00 | 0.00 | 0.00 | 75 | 1010.3 |
| 20260508060103 | 53 | 354 | 0.0 | 0.0 | 0.00 | 0.00 | 0.00 | 75 | 1010.3 |
| 20260508055104 | 53 | 350 | 0.0 | 0.0 | 0.00 | 0.00 | 0.00 | 74 | 1010.5 |
| 20260508054604 | 54 | 350 | 0.0 | 0.0 | 0.00 | 0.00 | 0.00 | 73 | 1010.5 |
| 20260508054104 | 54 | 350 | 0.0 | 0.0 | 0.00 | 0.00 | 0.00 | 72 | 1010.5 |
| 20260508053603 | 54 | 352 | 0.0 | 0.0 | 0.00 | 0.00 | 0.00 | 72 | 1010.5 |
| 20260508053103 | 55 | 347 | 0.0 | 0.0 | 0.00 | 0.00 | 0.00 | 71 | 1010.5 |
| 20260508052604 | 55 | 350 | 0.0 | 0.0 | 0.00 | 0.00 | 0.00 | 70 | 1010.2 |
| 20260508052104 | 56 | 355 | 0.0 | 0.0 | 0.00 | 0.00 | 0.00 | 70 | 1010.2 |
| 20260508051603 | 56 | 351 | 0.0 | 0.0 | 0.00 | 0.00 | 0.00 | 70 | 1010.2 |
| 20260508050604 | 56 | 343 | 0.0 | 0.9 | 0.00 | 0.00 | 0.00 | 70 | 1010.2 |
| 20260508050105 | 56 | 346 | 0.0 | 0.0 | 0.00 | 0.00 | 0.00 | 70 | 1010.2 |
| 20260508045603 | 56 | 344 | 0.0 | 0.0 | 0.00 | 0.00 | 0.00 | 69 | 1010.2 |
| 20260508045104 | 56 | 347 | 0.0 | 2.6 | 0.00 | 0.00 | 0.00 | 69 | 1009.8 |
| 20260508044604 | 56 | 338 | 0.0 | 2.6 | 0.00 | 0.00 | 0.00 | 68 | 1010.2 |
| 20260508043604 | 56 | 338 | 0.0 | 0.9 | 0.00 | 0.00 | 0.00 | 67 | 1010.2 |
| 20260508042604 | 56 | 339 | 0.0 | 0.9 | 0.00 | 0.00 | 0.00 | 67 | 1010.2 |
| 20260508042104 | 56 | 341 | 0.0 | 0.0 | 0.00 | 0.00 | 0.00 | 68 | 1009.8 |
| 20260508041604 | 56 | 337 | 0.0 | 0.9 | 0.00 | 0.00 | 0.00 | 68 | 1009.8 |
| 20260508041104 | 56 | 317 | 0.0 | 0.9 | 0.00 | 0.00 | 0.00 | 69 | 1009.8 |
| 20260508040604 | 56 | 347 | 0.0 | 0.0 | 0.00 | 0.00 | 0.00 | 68 | 1009.5 |
| 20260508040104 | 56 | 347 | 0.0 | 0.0 | 0.00 | 0.00 | 0.00 | 68 | 1009.8 |
| 20260508035104 | 56 | 346 | 0.0 | 0.0 | 0.00 | 0.00 | 0.00 | 67 | 1009.8 |
| 20260508034604 | 56 | 346 | 0.0 | 0.0 | 0.00 | 0.00 | 0.00 | 67 | 1009.8 |
| 20260508034104 | 56 | 344 | 0.0 | 0.0 | 0.00 | 0.00 | 0.00 | 68 | 1009.5 |
| 20260508033104 | 56 | 347 | 0.0 | 0.0 | 0.00 | 0.00 | 0.00 | 69 | 1009.5 |
| 20260508032604 | 56 | 354 | 0.0 | 0.0 | 0.00 | 0.00 | 0.00 | 70 | 1009.8 |
| 20260508032104 | 56 | 346 | 0.0 | 0.0 | 0.00 | 0.00 | 0.00 | 70 | 1010.2 |
| 20260508031603 | 56 | 347 | 0.0 | 0.0 | 0.00 | 0.00 | 0.00 | 69 | 1009.8 |
| 20260508031103 | 56 | 346 | 0.0 | 0.0 | 0.00 | 0.00 | 0.00 | 69 | 1009.8 |
| 20260508030104 | 57 | 349 | 0.0 | 0.0 | 0.00 | 0.00 | 0.00 | 69 | 1009.5 |
| 20260508025604 | 57 | 349 | 0.0 | 0.0 | 0.00 | 0.00 | 0.00 | 68 | 1009.5 |
| 20260508025104 | 57 | 347 | 0.0 | 0.0 | 0.00 | 0.00 | 0.00 | 68 | 1009.5 |
| 20260508024604 | 57 | 348 | 0.0 | 0.0 | 0.00 | 0.00 | 0.00 | 68 | 1009.5 |
| 20260508024104 | 57 | 348 | 0.0 | 0.9 | 0.00 | 0.00 | 0.00 | 68 | 1009.5 |
| 20260508022604 | 57 | 323 | 0.0 | 0.0 | 0.00 | 0.00 | 0.00 | 67 | 1009.8 |
| 20260508022104 | 58 | 349 | 0.0 | 1.7 | 0.00 | 0.00 | 0.00 | 67 | 1009.5 |
| 20260508021603 | 58 | 348 | 0.0 | 1.7 | 0.00 | 0.00 | 0.00 | 67 | 1009.5 |
| 20260508021103 | 58 | 359 | 0.0 | 2.6 | 0.00 | 0.00 | 0.00 | 66 | 1009.8 |
| 20260508020604 | 58 | 354 | 0.9 | 2.6 | 0.00 | 0.00 | 0.00 | 66 | 1009.8 |
| 20260508020104 | 58 | 346 | 0.9 | 4.3 | 0.00 | 0.00 | 0.00 | 66 | 1009.8 |
| 20260508015604 | 58 | 1 | 1.7 | 5.2 | 0.00 | 0.00 | 0.00 | 66 | 1009.5 |
| 20260508015104 | 58 | 347 | 1.7 | 5.2 | 0.00 | 0.00 | 0.00 | 66 | 1009.5 |
| 20260508014604 | 58 | 354 | 1.7 | 4.3 | 0.00 | 0.00 | 0.00 | 66 | 1009.8 |
| 20260508014104 | 58 | 358 | 0.9 | 2.6 | 0.00 | 0.00 | 0.00 | 66 | 1009.8 |
| 20260508013604 | 58 | 324 | 0.0 | 2.6 | 0.00 | 0.00 | 0.00 | 66 | 1009.5 |
| 20260508013104 | 58 | 3 | 0.9 | 2.6 | 0.00 | 0.00 | 0.00 | 66 | 1009.5 |
| 20260508012604 | 59 | 2 | 1.7 | 2.6 | 0.00 | 0.00 | 0.00 | 65 | 1009.5 |
| 20260508011603 | 59 | 6 | 1.7 | 2.6 | 0.00 | 0.00 | 0.00 | 63 | 1009.8 |
| 20260508011103 | 59 | 344 | 0.9 | 4.3 | 0.00 | 0.00 | 0.00 | 63 | 1010.2 |
| 20260508010604 | 59 | 351 | 1.7 | 4.3 | 0.00 | 0.00 | 0.00 | 62 | 1010.2 |
| 20260508010104 | 59 | 338 | 0.0 | 4.3 | 0.00 | 0.00 | 0.00 | 62 | 1010.2 |
| 20260508005104 | 60 | 349 | 1.7 | 5.2 | 0.00 | 0.00 | 0.00 | 62 | 1010.2 |
| 20260508004603 | 60 | 354 | 1.7 | 5.2 | 0.00 | 0.00 | 0.00 | 62 | 1010.2 |
| 20260508003605 | 59 | 336 | 1.7 | 4.3 | 0.00 | 0.00 | 0.00 | 62 | 1010.2 |
| 20260508002603 | 59 | 339 | 1.7 | 4.3 | 0.00 | 0.00 | 0.00 | 63 | 1010.2 |
| 20260508001603 | 59 | 336 | 0.0 | 2.6 | 0.00 | 0.00 | 0.00 | 63 | 1010.4 |
| 20260508001103 | 59 | 343 | 0.0 | 1.7 | 0.00 | 0.00 | 0.00 | 63 | 1010.2 |
| 20260508000104 | 59 | 329 | 0.9 | 4.3 | 0.00 | 0.00 | 0.00 | 64 | 1010.2 |
| 20260507235604 | 59 | 342 | 0.0 | 1.7 | 0.00 | 0.00 | 0.00 | 63 | 1010.2 |
| 20260507235104 | 60 | 339 | 0.9 | 2.6 | 0.00 | 0.00 | 0.00 | 63 | 1010.2 |
| 20260507234604 | 59 | 347 | 1.7 | 2.6 | 0.00 | 0.00 | 0.00 | 63 | 1010.0 |
| 20260507234104 | 59 | 0 | 0.9 | 2.6 | 0.00 | 0.00 | 0.00 | 63 | 1009.9 |
| 20260507233603 | 59 | 332 | 1.7 | 4.3 | 0.00 | 0.00 | 0.00 | 64 | 1010.2 |
| 20260507233103 | 59 | 329 | 0.9 | 4.3 | 0.00 | 0.00 | 0.00 | 66 | 1010.2 |
| 20260507232603 | 59 | 316 | 0.9 | 2.6 | 0.00 | 0.00 | 0.00 | 67 | 1010.2 |
| 20260507231603 | 60 | 339 | 0.0 | 0.9 | 0.00 | 0.00 | 0.00 | 74 | 1010.5 |
| 20260507230604 | 60 | 341 | 0.0 | 0.0 | 0.00 | 0.00 | 0.00 | 74 | 1010.5 |
| 20260507230104 | 59 | 339 | 0.0 | 0.0 | 0.00 | 0.00 | 0.00 | 74 | 1010.2 |
| 20260507225604 | 59 | 352 | 0.0 | 0.0 | 0.00 | 0.00 | 0.00 | 74 | 1010.5 |
| 20260507225104 | 60 | 350 | 0.0 | 0.0 | 0.00 | 0.00 | 0.00 | 74 | 1010.2 |
| 20260507224603 | 60 | 347 | 0.0 | 0.0 | 0.00 | 0.00 | 0.00 | 74 | 1010.2 |
| 20260507224104 | 60 | 351 | 0.0 | 0.0 | 0.00 | 0.00 | 0.00 | 73 | 1010.5 |
| 20260507223104 | 61 | 347 | 0.0 | 0.0 | 0.00 | 0.00 | 0.00 | 73 | 1010.2 |
| 20260507221603 | 61 | 345 | 0.0 | 0.0 | 0.00 | 0.00 | 0.00 | 72 | 1010.5 |
| 20260507220604 | 61 | 340 | 0.0 | 0.0 | 0.00 | 0.00 | 0.00 | 72 | 1010.5 |
| 20260507220104 | 62 | 341 | 0.0 | 1.7 | 0.00 | 0.00 | 0.00 | 72 | 1010.2 |
| 20260507215604 | 62 | 295 | 0.0 | 2.6 | 0.00 | 0.00 | 0.00 | 71 | 1010.5 |
| 20260507215104 | 62 | 217 | 1.7 | 2.6 | 0.00 | 0.00 | 0.00 | 71 | 1010.5 |
| 20260507214604 | 62 | 253 | 0.9 | 2.6 | 0.00 | 0.00 | 0.00 | 70 | 1010.8 |
| 20260507214104 | 62 | 244 | 1.7 | 6.1 | 0.00 | 0.00 | 0.00 | 69 | 1010.5 |
| 20260507213604 | 62 | 216 | 4.3 | 6.1 | 0.00 | 0.00 | 0.00 | 69 | 1010.8 |
| 20260507212603 | 62 | 229 | 2.6 | 4.3 | 0.00 | 0.00 | 0.00 | 70 | 1010.8 |
| 20260507212104 | 62 | 250 | 2.6 | 5.2 | 0.00 | 0.00 | 0.00 | 70 | 1010.8 |
| 20260507211605 | 62 | 287 | 0.9 | 7.8 | 0.00 | 0.00 | 0.00 | 70 | 1010.8 |
| 20260507211104 | 62 | 246 | 2.6 | 7.8 | 0.00 | 0.00 | 0.00 | 70 | 1010.8 |
| 20260507210604 | 62 | 234 | 0.9 | 4.3 | 0.00 | 0.00 | 0.00 | 70 | 1010.8 |
| 20260507210104 | 62 | 351 | 0.0 | 6.1 | 0.00 | 0.00 | 0.00 | 70 | 1010.8 |
| 20260507205604 | 62 | 244 | 2.6 | 6.1 | 0.00 | 0.00 | 0.00 | 70 | 1010.8 |
| 20260507205104 | 62 | 267 | 2.6 | 5.2 | 0.00 | 0.00 | 0.00 | 70 | 1010.8 |
| 20260507204603 | 62 | 262 | 1.7 | 5.2 | 0.00 | 0.00 | 0.00 | 70 | 1010.5 |
| 20260507203604 | 62 | 257 | 1.7 | 4.3 | 0.00 | 0.00 | 0.00 | 71 | 1010.5 |
| 20260507202604 | 62 | 226 | 2.6 | 6.1 | 0.00 | 0.00 | 0.00 | 72 | 1010.5 |
| 20260507202104 | 62 | 251 | 0.9 | 5.2 | 0.00 | 0.00 | 0.00 | 72 | 1010.5 |
| 20260507201603 | 62 | 225 | 2.6 | 5.2 | 0.00 | 0.00 | 0.00 | 73 | 1010.5 |
| 20260507201103 | 62 | 231 | 1.7 | 7.0 | 0.00 | 0.00 | 0.00 | 73 | 1010.5 |
| 20260507200104 | 62 | 240 | 2.6 | 7.0 | 0.00 | 0.00 | 0.00 | 73 | 1010.5 |
| 20260507195604 | 62 | 154 | 4.3 | 6.1 | 0.00 | 0.00 | 0.00 | 72 | 1010.2 |
| 20260507195104 | 62 | 272 | 2.6 | 5.2 | 0.00 | 0.00 | 0.00 | 72 | 1010.5 |
| 20260507194604 | 62 | 236 | 0.9 | 4.3 | 0.00 | 0.00 | 0.00 | 72 | 1010.5 |
| 20260507194104 | 62 | 321 | 0.9 | 4.3 | 0.00 | 0.00 | 0.00 | 72 | 1010.5 |
| 20260507193604 | 62 | 328 | 0.0 | 4.3 | 0.00 | 0.00 | 0.00 | 72 | 1010.2 |
| 20260507192605 | 62 | 142 | 0.0 | 1.7 | 0.00 | 0.00 | 0.00 | 72 | 1010.5 |
| 20260507192104 | 62 | 218 | 1.7 | 2.6 | 0.00 | 0.00 | 0.00 | 71 | 1010.2 |
| 20260507191604 | 62 | 238 | 0.9 | 4.3 | 0.00 | 0.00 | 0.00 | 71 | 1010.2 |
| 20260507191104 | 62 | 248 | 0.9 | 4.3 | 0.00 | 0.00 | 0.00 | 71 | 1010.5 |
| 20260507190604 | 62 | 223 | 0.0 | 2.6 | 0.00 | 0.00 | 0.00 | 71 | 1010.2 |
| 20260507190104 | 62 | 241 | 0.9 | 2.6 | 0.00 | 0.00 | 0.00 | 71 | 1010.2 |
| 20260507184603 | 63 | 223 | 0.9 | 4.3 | 0.00 | 0.00 | 0.00 | 70 | 1010.2 |
| 20260507184104 | 63 | 221 | 2.6 | 5.2 | 0.00 | 0.00 | 0.00 | 70 | 1010.2 |
| 20260507183604 | 63 | 238 | 2.6 | 5.2 | 0.00 | 0.00 | 0.00 | 70 | 1010.0 |
| 20260507183104 | 63 | 262 | 1.7 | 5.2 | 0.00 | 0.00 | 0.00 | 70 | 1009.8 |
| 20260507182104 | 63 | 289 | 0.0 | 7.0 | 0.00 | 0.00 | 0.00 | 70 | 1009.9 |
| 20260507181603 | 63 | 308 | 0.9 | 7.0 | 0.00 | 0.00 | 0.00 | 70 | 1010.1 |
| 20260507181104 | 63 | 206 | 4.3 | 7.0 | 0.00 | 0.00 | 0.00 | 69 | 1009.8 |
| 20260507180104 | 64 | 215 | 1.7 | 6.1 | 0.00 | 0.00 | 0.00 | 69 | 1009.8 |
| 20260507175604 | 64 | 266 | 1.7 | 7.0 | 0.00 | 0.00 | 0.00 | 68 | 1009.8 |
| 20260507175104 | 64 | 299 | 1.7 | 8.7 | 0.00 | 0.00 | 0.00 | 69 | 1009.8 |
| 20260507174604 | 64 | 233 | 2.6 | 8.7 | 0.00 | 0.00 | 0.00 | 68 | 1009.5 |
| 20260507174103 | 64 | 256 | 2.6 | 7.0 | 0.00 | 0.00 | 0.00 | 68 | 1009.8 |
| 20260507173604 | 64 | 232 | 1.7 | 7.8 | 0.00 | 0.00 | 0.00 | 68 | 1009.5 |
| 20260507172604 | 64 | 236 | 2.6 | 10.4 | 0.00 | 0.00 | 0.00 | 68 | 1009.8 |
| 20260507172104 | 64 | 297 | 2.6 | 7.8 | 0.00 | 0.00 | 0.00 | 68 | 1009.8 |
| 20260507171604 | 64 | 229 | 2.6 | 7.8 | 0.00 | 0.00 | 0.00 | 67 | 1009.8 |
| 20260507171104 | 64 | 289 | 2.6 | 7.8 | 0.00 | 0.00 | 0.00 | 67 | 1009.8 |
| 20260507170603 | 65 | 180 | 2.6 | 7.8 | 0.00 | 0.00 | 0.00 | 66 | 1009.8 |
| 20260507170105 | 65 | 262 | 1.7 | 7.0 | 0.00 | 0.00 | 0.00 | 66 | 1009.5 |
| 20260507165603 | 65 | 225 | 1.7 | 8.7 | 0.00 | 0.00 | 0.00 | 67 | 1009.5 |
| 20260507165104 | 66 | 307 | 1.7 | 8.7 | 0.00 | 0.00 | 0.00 | 66 | 1009.5 |
| 20260507164604 | 66 | 223 | 2.6 | 6.1 | 0.00 | 0.00 | 0.00 | 64 | 1009.5 |
| 20260507164103 | 66 | 226 | 0.9 | 6.1 | 0.00 | 0.00 | 0.00 | 65 | 1009.5 |
| 20260507163604 | 66 | 230 | 2.6 | 6.1 | 0.00 | 0.00 | 0.00 | 65 | 1009.5 |
| 20260507163103 | 66 | 212 | 0.9 | 6.1 | 0.00 | 0.00 | 0.00 | 64 | 1009.5 |
| 20260507162604 | 65 | 309 | 1.7 | 7.8 | 0.00 | 0.00 | 0.00 | 64 | 1009.5 |
| 20260507162104 | 66 | 222 | 2.6 | 7.8 | 0.00 | 0.00 | 0.00 | 64 | 1009.5 |
| 20260507161603 | 67 | 251 | 2.6 | 5.2 | 0.00 | 0.00 | 0.00 | 64 | 1009.5 |
| 20260507161104 | 67 | 346 | 1.7 | 5.2 | 0.00 | 0.00 | 0.00 | 64 | 1009.5 |
| 20260507160104 | 67 | 95 | 0.9 | 7.0 | 0.00 | 0.00 | 0.00 | 66 | 1009.5 |
| 20260507155604 | 66 | 237 | 0.9 | 6.1 | 0.00 | 0.00 | 0.00 | 67 | 1009.5 |
| 20260507155104 | 67 | 201 | 1.7 | 6.1 | 0.00 | 0.00 | 0.00 | 65 | 1009.1 |
| 20260507154604 | 67 | 291 | 1.7 | 5.2 | 0.00 | 0.00 | 0.00 | 65 | 1009.5 |
| 20260507153604 | 67 | 214 | 1.7 | 4.3 | 0.00 | 0.00 | 0.00 | 64 | 1009.1 |
| 20260507152104 | 67 | 217 | 2.6 | 6.1 | 0.00 | 0.00 | 0.00 | 64 | 1009.5 |
| 20260507151604 | 66 | 243 | 4.3 | 6.1 | 0.00 | 0.00 | 0.00 | 65 | 1009.5 |
| 20260507151104 | 66 | 158 | 2.6 | 6.1 | 0.00 | 0.00 | 0.00 | 65 | 1009.5 |
| 20260507150105 | 66 | 227 | 2.6 | 7.8 | 0.00 | 0.00 | 0.00 | 65 | 1009.5 |
| 20260507145604 | 67 | 306 | 2.6 | 6.1 | 0.00 | 0.00 | 0.00 | 66 | 1009.5 |
| 20260507145103 | 67 | 195 | 1.7 | 6.1 | 0.00 | 0.00 | 0.00 | 66 | 1009.5 |
| 20260507144604 | 67 | 223 | 2.6 | 6.1 | 0.00 | 0.00 | 0.00 | 65 | 1009.5 |
| 20260507144104 | 67 | 223 | 2.6 | 6.1 | 0.00 | 0.00 | 0.00 | 65 | 1009.5 |
| 20260507143604 | 67 | 200 | 2.6 | 5.2 | 0.00 | 0.00 | 0.00 | 65 | 1009.5 |
| 20260507143104 | 67 | 158 | 2.6 | 5.2 | 0.00 | 0.00 | 0.00 | 65 | 1009.8 |
| 20260507142604 | 67 | 184 | 2.6 | 5.2 | 0.00 | 0.00 | 0.00 | 64 | 1009.8 |
| 20260507142104 | 67 | 223 | 1.7 | 6.1 | 0.00 | 0.00 | 0.00 | 64 | 1009.8 |
| 20260507141604 | 68 | 204 | 1.7 | 6.1 | 0.00 | 0.00 | 0.00 | 62 | 1009.8 |
| 20260507141104 | 68 | 262 | 1.7 | 6.1 | 0.00 | 0.00 | 0.00 | 62 | 1010.2 |
| 20260507140604 | 68 | 132 | 0.9 | 6.1 | 0.00 | 0.00 | 0.00 | 60 | 1009.8 |
| 20260507140104 | 68 | 243 | 1.7 | 5.2 | 0.00 | 0.00 | 0.00 | 60 | 1009.8 |
| 20260507135603 | 68 | 173 | 2.6 | 6.1 | 0.00 | 0.00 | 0.00 | 60 | 1009.8 |
| 20260507134604 | 67 | 202 | 4.3 | 6.1 | 0.00 | 0.00 | 0.00 | 60 | 1010.2 |
| 20260507133604 | 68 | 13 | 2.6 | 5.2 | 0.00 | 0.00 | 0.00 | 61 | 1010.2 |
| 20260507133104 | 68 | 196 | 2.6 | 6.1 | 0.00 | 0.00 | 0.00 | 62 | 1010.2 |
| 20260507132604 | 67 | 4 | 2.6 | 6.1 | 0.00 | 0.00 | 0.00 | 62 | 1010.2 |
| 20260507132104 | 68 | 131 | 1.7 | 6.1 | 0.00 | 0.00 | 0.00 | 60 | 1010.2 |
| 20260507131104 | 67 | 269 | 2.6 | 7.0 | 0.00 | 0.00 | 0.00 | 58 | 1010.2 |
| 20260507130604 | 67 | 187 | 2.6 | 7.0 | 0.00 | 0.00 | 0.00 | 60 | 1010.5 |
| 20260507125604 | 67 | 219 | 1.7 | 5.2 | 0.00 | 0.00 | 0.00 | 60 | 1010.2 |
| 20260507125104 | 67 | 224 | 1.7 | 5.2 | 0.00 | 0.00 | 0.00 | 61 | 1010.5 |
| 20260507124605 | 66 | 139 | 2.6 | 7.0 | 0.00 | 0.00 | 0.00 | 61 | 1010.5 |
| 20260507124104 | 66 | 243 | 1.7 | 7.0 | 0.00 | 0.00 | 0.00 | 61 | 1010.5 |
| 20260507123104 | 66 | 145 | 1.7 | 6.1 | 0.00 | 0.00 | 0.00 | 61 | 1010.2 |
| 20260507122104 | 66 | 215 | 0.9 | 5.2 | 0.00 | 0.00 | 0.00 | 63 | 1010.5 |
| 20260507121604 | 66 | 245 | 2.6 | 7.0 | 0.00 | 0.00 | 0.00 | 64 | 1010.5 |
| 20260507121104 | 66 | 276 | 2.6 | 7.0 | 0.00 | 0.00 | 0.00 | 64 | 1010.5 |
| 20260507120104 | 66 | 278 | 1.7 | 5.2 | 0.00 | 0.00 | 0.00 | 65 | 1010.8 |
| 20260507115604 | 66 | 169 | 1.7 | 5.2 | 0.00 | 0.00 | 0.00 | 64 | 1010.8 |
| 20260507115104 | 66 | 238 | 0.9 | 4.3 | 0.00 | 0.00 | 0.00 | 65 | 1010.8 |
| 20260507114603 | 66 | 215 | 1.7 | 2.6 | 0.00 | 0.00 | 0.00 | 64 | 1010.8 |
| 20260507113604 | 66 | 265 | 1.7 | 5.2 | 0.00 | 0.00 | 0.00 | 64 | 1011.2 |
| 20260507113104 | 66 | 249 | 2.6 | 6.1 | 0.00 | 0.00 | 0.00 | 64 | 1010.8 |
| 20260507112604 | 65 | 243 | 2.6 | 6.1 | 0.00 | 0.00 | 0.00 | 64 | 1010.8 |
| 20260507112104 | 65 | 209 | 1.7 | 4.3 | 0.00 | 0.00 | 0.00 | 65 | 1010.8 |
| 20260507111605 | 65 | 233 | 0.9 | 4.3 | 0.00 | 0.00 | 0.00 | 64 | 1010.5 |
| 20260507111103 | 65 | 219 | 1.7 | 5.2 | 0.00 | 0.00 | 0.00 | 65 | 1010.8 |
| 20260507110604 | 65 | 198 | 2.6 | 5.2 | 0.00 | 0.00 | 0.00 | 65 | 1010.8 |
| 20260507105604 | 64 | 237 | 1.7 | 5.2 | 0.00 | 0.00 | 0.00 | 67 | 1010.5 |
| 20260507105104 | 64 | 254 | 2.6 | 5.2 | 0.00 | 0.00 | 0.00 | 67 | 1010.8 |
| 20260507104603 | 65 | 299 | 0.9 | 5.2 | 0.00 | 0.00 | 0.00 | 67 | 1010.8 |
| 20260507104104 | 65 | 231 | 1.7 | 5.2 | 0.00 | 0.00 | 0.00 | 66 | 1010.5 |
| 20260507103103 | 64 | 252 | 0.9 | 2.6 | 0.00 | 0.00 | 0.00 | 67 | 1010.8 |
| 20260507102604 | 64 | 348 | 0.9 | 4.3 | 0.00 | 0.00 | 0.00 | 68 | 1010.5 |
| 20260507101104 | 64 | 290 | 0.9 | 2.6 | 0.00 | 0.00 | 0.00 | 69 | 1010.5 |
| 20260507100604 | 64 | 213 | 0.9 | 2.6 | 0.00 | 0.00 | 0.00 | 70 | 1010.8 |
| 20260507095603 | 64 | 234 | 2.6 | 5.2 | 0.00 | 0.00 | 0.00 | 70 | 1010.5 |
| 20260507095104 | 64 | 171 | 2.6 | 2.6 | 0.00 | 0.00 | 0.00 | 69 | 1010.5 |
| 20260507094603 | 63 | 199 | 1.7 | 1.7 | 0.00 | 0.00 | 0.00 | 71 | 1010.5 |
| 20260507094103 | 62 | 250 | 0.0 | 2.6 | 0.00 | 0.00 | 0.00 | 71 | 1010.5 |
| 20260507093604 | 62 | 266 | 0.9 | 2.6 | 0.00 | 0.00 | 0.00 | 71 | 1010.5 |
| 20260507093104 | 62 | 333 | 0.0 | 4.3 | 0.00 | 0.00 | 0.00 | 71 | 1010.8 |
| 20260507092604 | 62 | 344 | 2.6 | 4.3 | 0.00 | 0.00 | 0.00 | 72 | 1010.5 |
| 20260507092104 | 62 | 356 | 0.0 | 2.6 | 0.00 | 0.00 | 0.00 | 72 | 1010.5 |
| 20260507091604 | 62 | 301 | 0.9 | 2.6 | 0.00 | 0.00 | 0.00 | 73 | 1010.5 |
| 20260507091103 | 62 | 220 | 0.9 | 1.7 | 0.00 | 0.00 | 0.00 | 72 | 1010.5 |
| 20260507090604 | 62 | 337 | 0.0 | 2.6 | 0.00 | 0.00 | 0.00 | 73 | 1010.8 |
| 20260507090104 | 61 | 163 | 0.9 | 2.6 | 0.00 | 0.00 | 0.00 | 73 | 1010.5 |
| 20260507085604 | 61 | 178 | 1.7 | 1.7 | 0.00 | 0.00 | 0.00 | 73 | 1010.5 |
| 20260507085104 | 61 | 208 | 0.9 | 1.7 | 0.00 | 0.00 | 0.00 | 74 | 1010.2 |